Precipitable_Water
0.91 0.88 0.83 0.78 0.76 0.71 0.65 0.75 0.78 0.77 0.79 0.78 0.82 0.80 0.74 0.72 0.67 0.56 0.46 0.46 0.50 0.51 0.50 0.48 0.48 0.44 0.42 0.37 0.37 0.34 0.16 0.14 0.21 0.22 0.23 0.29 0.27 0.32 0.36 0.28 0.31 0.37 0.36 0.37 0.40
0.85 0.80 0.77 0.75 0.72 0.67 0.68 0.77 0.80 0.78 0.77 0.78 0.81 0.78 0.76 0.71 0.58 0.49 0.50 0.50 0.50 0.52 0.50 0.37 0.32 0.39 0.31 0.37 0.35 0.27 0.17 0.18 0.27 0.26 0.23 0.23 0.22 0.24 0.28 0.29 0.28 0.32 0.40 0.39 0.39
0.88 0.76 0.72 0.70 0.66 0.64 0.73 0.77 0.79 0.77 0.77 0.79 0.79 0.76 0.74 0.72 0.54 0.47 0.53 0.52 0.52 0.53 0.49 0.35 0.31 0.29 0.24 0.30 0.31 0.28 0.18 0.23 0.22 0.24 0.25 0.21 0.20 0.24 0.25 0.22 0.25 0.26 0.36 0.40 0.37
0.89 0.73 0.69 0.67 0.62 0.66 0.76 0.78 0.79 0.77 0.78 0.78 0.77 0.76 0.75 0.66 0.38 0.56 0.56 0.52 0.51 0.51 0.39 0.32 0.29 0.26 0.24 0.24 0.29 0.22 0.21 0.21 0.23 0.25 0.23 0.21 0.24 0.22 0.24 0.22 0.31 0.32 0.36 0.39 0.37
0.82 0.73 0.68 0.64 0.65 0.75 0.76 0.77 0.77 0.76 0.77 0.76 0.75 0.75 0.65 0.52 0.47 0.58 0.54 0.50 0.49 0.42 0.33 0.28 0.23 0.24 0.20 0.23 0.24 0.20 0.21 0.23 0.23 0.23 0.24 0.26 0.23 0.24 0.24 0.27 0.30 0.31 0.32 0.35 0.35
0.88 0.69 0.67 0.66 0.72 0.78 0.77 0.74 0.75 0.74 0.75 0.75 0.74 0.73 0.57 0.42 0.57 0.57 0.51 0.45 0.43 0.38 0.34 0.31 0.28 0.28 0.21 0.20 0.20 0.21 0.20 0.18 0.20 0.22 0.24 0.22 0.23 0.26 0.25 0.29 0.27 0.27 0.27 0.31 0.35
0.73 0.72 0.71 0.72 0.74 0.76 0.75 0.74 0.73 0.72 0.75 0.74 0.74 0.67 0.50 0.45 0.56 0.56 0.49 0.44 0.42 0.37 0.32 0.34 0.32 0.26 0.27 0.19 0.26 0.22 0.15 0.18 0.24 0.24 0.24 0.26 0.19 0.19 0.26 0.30 0.28 0.28 0.28 0.28 0.32
0.66 0.69 0.72 0.78 0.73 0.72 0.71 0.69 0.70 0.71 0.71 0.71 0.72 0.61 0.43 0.56 0.55 0.50 0.47 0.42 0.42 0.40 0.35 0.35 0.34 0.28 0.25 0.25 0.18 0.17 0.22 0.16 0.23 0.23 0.25 0.24 0.14 0.20 0.25 0.26 0.26 0.27 0.27 0.28 0.30
0.61 0.68 0.68 0.75 0.73 0.68 0.68 0.69 0.68 0.68 0.69 0.70 0.57 0.52 0.39 0.52 0.40 0.43 0.42 0.37 0.39 0.37 0.36 0.35 0.32 0.25 0.27 0.18 0.15 0.20 0.16 0.18 0.17 0.24 0.23 0.22 0.16 0.22 0.27 0.26 0.24 0.25 0.26 0.26 0.27
0.61 0.64 0.67 0.69 0.73 0.69 0.66 0.64 0.63 0.64 0.63 0.63 0.54 0.41 0.39 0.33 0.41 0.40 0.43 0.41 0.35 0.34 0.31 0.30 0.27 0.22 0.24 0.22 0.14 0.14 0.14 0.13 0.13 0.18 0.21 0.19 0.18 0.21 0.24 0.25 0.25 0.25 0.26 0.26 0.26
0.63 0.60 0.63 0.65 0.67 0.71 0.63 0.58 0.45 0.43 0.48 0.36 0.42 0.37 0.37 0.43 0.41 0.39 0.43 0.36 0.34 0.31 0.22 0.28 0.21 0.15 0.18 0.20 0.19 0.16 0.13 0.13 0.16 0.21 0.19 0.18 0.18 0.20 0.23 0.26 0.25 0.25 0.26 0.26 0.27
0.63 0.64 0.64 0.66 0.66 0.67 0.64 0.47 0.52 0.58 0.39 0.46 0.45 0.43 0.42 0.40 0.31 0.35 0.39 0.29 0.29 0.22 0.25 0.24 0.17 0.23 0.23 0.20 0.17 0.16 0.15 0.15 0.18 0.22 0.21 0.19 0.19 0.22 0.26 0.27 0.27 0.26 0.26 0.26 0.28
0.65 0.66 0.64 0.67 0.67 0.61 0.55 0.59 0.74 0.71 0.44 0.38 0.43 0.36 0.36 0.37 0.31 0.32 0.37 0.31 0.24 0.21 0.21 0.19 0.20 0.24 0.22 0.19 0.17 0.19 0.18 0.19 0.19 0.21 0.24 0.22 0.19 0.22 0.26 0.28 0.28 0.29 0.30 0.31 0.31
0.68 0.66 0.65 0.65 0.56 0.58 0.53 0.62 0.66 0.62 0.30 0.31 0.34 0.35 0.37 0.38 0.30 0.41 0.37 0.30 0.26 0.22 0.25 0.23 0.27 0.25 0.23 0.22 0.24 0.19 0.25 0.23 0.22 0.21 0.16 0.24 0.14 0.19 0.24 0.26 0.28 0.29 0.30 0.32 0.33
0.68 0.67 0.67 0.67 0.67 0.56 0.63 0.64 0.64 0.52 0.19 0.36 0.36 0.46 0.41 0.32 0.33 0.32 0.37 0.34 0.26 0.28 0.29 0.25 0.27 0.25 0.23 0.24 0.27 0.22 0.26 0.23 0.23 0.23 0.21 0.21 0.18 0.20 0.24 0.23 0.26 0.28 0.29 0.32 0.34
0.67 0.68 0.69 0.65 0.63 0.67 0.71 0.66 0.56 0.28 0.20 0.30 0.36 0.35 0.33 0.32 0.31 0.36 0.36 0.39 0.38 0.30 0.29 0.27 0.31 0.28 0.26 0.28 0.27 0.28 0.24 0.24 0.25 0.25 0.17 0.23 0.21 0.18 0.21 0.24 0.28 0.31 0.32 0.36 0.38
0.65 0.66 0.66 0.70 0.61 0.72 0.65 0.49 0.28 0.22 0.32 0.31 0.32 0.35 0.32 0.31 0.31 0.34 0.33 0.31 0.27 0.23 0.24 0.26 0.27 0.31 0.29 0.24 0.29 0.27 0.22 0.16 0.19 0.20 0.20 0.27 0.23 0.23 0.27 0.31 0.32 0.33 0.37 0.39 0.40
0.62 0.62 0.64 0.67 0.71 0.70 0.55 0.34 0.23 0.27 0.28 0.39 0.34 0.33 0.30 0.32 0.31 0.31 0.28 0.25 0.31 0.29 0.21 0.20 0.19 0.27 0.29 0.26 0.23 0.25 0.25 0.18 0.16 0.17 0.19 0.26 0.23 0.26 0.33 0.34 0.35 0.37 0.39 0.39 0.39
0.64 0.57 0.59 0.64 0.69 0.64 0.44 0.27 0.25 0.31 0.35 0.30 0.30 0.25 0.27 0.29 0.28 0.28 0.26 0.26 0.30 0.28 0.21 0.20 0.21 0.31 0.31 0.33 0.31 0.30 0.25 0.32 0.25 0.25 0.22 0.24 0.26 0.29 0.31 0.30 0.32 0.33 0.34 0.35 0.36
0.61 0.57 0.54 0.67 0.66 0.54 0.38 0.28 0.30 0.34 0.35 0.33 0.24 0.27 0.23 0.27 0.24 0.27 0.25 0.28 0.26 0.29 0.30 0.26 0.21 0.30 0.34 0.35 0.34 0.31 0.33 0.23 0.25 0.18 0.16 0.18 0.20 0.20 0.26 0.28 0.30 0.30 0.33 0.36 0.39
0.63 0.47 0.68 0.70 0.63 0.44 0.29 0.31 0.34 0.36 0.36 0.30 0.25 0.25 0.24 0.26 0.27 0.24 0.23 0.28 0.30 0.30 0.34 0.32 0.29 0.28 0.33 0.29 0.26 0.27 0.25 0.26 0.26 0.24 0.18 0.15 0.17 0.25 0.26 0.28 0.28 0.32 0.36 0.37 0.39
0.60 0.37 0.70 0.68 0.38 0.39 0.31 0.33 0.38 0.36 0.34 0.32 0.29 0.28 0.26 0.27 0.25 0.23 0.23 0.30 0.38 0.36 0.31 0.36 0.31 0.23 0.23 0.29 0.31 0.30 0.26 0.26 0.20 0.18 0.19 0.18 0.14 0.25 0.31 0.33 0.32 0.34 0.36 0.38 0.40
0.50 0.49 0.68 0.62 0.29 0.31 0.36 0.37 0.41 0.38 0.35 0.31 0.28 0.30 0.32 0.27 0.24 0.28 0.32 0.40 0.41 0.37 0.34 0.35 0.27 0.21 0.19 0.24 0.29 0.26 0.27 0.27 0.26 0.24 0.18 0.18 0.16 0.26 0.27 0.30 0.32 0.31 0.33 0.37 0.39
0.58 0.39 0.51 0.55 0.50 0.40 0.36 0.39 0.34 0.38 0.34 0.34 0.32 0.35 0.32 0.29 0.33 0.31 0.35 0.42 0.41 0.39 0.40 0.39 0.29 0.23 0.19 0.22 0.29 0.26 0.27 0.28 0.28 0.21 0.18 0.18 0.18 0.23 0.26 0.26 0.28 0.30 0.34 0.36 0.38
0.65 0.48 0.55 0.41 0.39 0.41 0.44 0.40 0.33 0.31 0.36 0.38 0.34 0.33 0.32 0.30 0.33 0.33 0.36 0.40 0.44 0.45 0.40 0.35 0.26 0.28 0.29 0.29 0.28 0.25 0.21 0.22 0.21 0.20 0.18 0.15 0.18 0.21 0.26 0.28 0.32 0.35 0.36 0.37 0.37
0.66 0.59 0.60 0.51 0.50 0.43 0.40 0.33 0.33 0.34 0.35 0.33 0.34 0.39 0.39 0.35 0.35 0.35 0.40 0.43 0.38 0.40 0.36 0.39 0.27 0.29 0.24 0.24 0.23 0.20 0.19 0.22 0.21 0.21 0.20 0.20 0.19 0.27 0.32 0.35 0.35 0.35 0.36 0.36 0.39
0.82 0.86 0.70 0.57 0.52 0.47 0.41 0.36 0.34 0.39 0.42 0.44 0.44 0.41 0.40 0.42 0.49 0.53 0.53 0.47 0.40 0.37 0.36 0.35 0.29 0.25 0.18 0.22 0.22 0.14 0.18 0.20 0.21 0.23 0.22 0.18 0.23 0.28 0.29 0.32 0.34 0.36 0.36 0.38 0.39
Wind_Speed
13 13 13 13 12 12 11 11 10 9 8 7 5 4 4 4 5 5 4 3 3 4 4 4 4 4 5 5 5 6 6 8 10 11 10 9 10 11 11 13 12 13 13 11 10
14 13 13 13 13 13 13 12 11 10 9 8 6 6 5 5 6 8 6 4 5 5 5 6 7 6 7 6 6 7 8 9 11 12 12 14 14 15 13 14 14 15 12 12 13
14 14 14 14 14 13 13 13 11 11 10 9 8 7 6 6 7 8 7 7 7 7 7 8 8 8 9 9 9 9 10 12 14 13 13 15 16 15 16 17 16 16 16 15 15
14 14 14 14 14 14 14 13 12 12 11 10 9 9 8 8 6 7 9 9 8 8 9 9 9 9 10 10 10 10 13 13 12 13 13 14 16 17 17 19 17 18 18 16 17
13 14 14 14 14 14 14 14 13 12 12 11 10 10 9 10 10 9 10 10 11 10 10 10 11 11 11 11 11 13 14 13 14 14 15 15 16 17 20 18 18 18 18 18 19
14 12 12 13 14 14 14 14 14 13 13 12 12 12 11 13 10 11 11 12 12 12 11 11 11 11 12 13 13 13 15 16 16 16 14 15 16 16 16 15 16 16 18 19 20
11 12 11 12 13 14 14 14 14 14 13 13 13 12 14 14 12 12 13 13 13 13 13 12 12 12 12 13 12 14 16 16 14 13 12 13 14 14 18 17 17 17 18 19 21
12 12 11 13 13 13 14 14 14 14 14 14 14 13 14 13 14 14 14 13 13 13 13 13 13 14 13 13 14 12 12 12 10 10 12 12 16 16 17 17 18 20 20 21 21
12 12 11 12 13 13 13 14 14 15 14 14 13 14 15 13 13 13 13 13 12 12 12 13 13 13 12 13 14 13 13 15 14 13 14 13 19 18 22 23 24 22 21 22 22
12 12 11 11 12 12 12 13 13 13 13 13 14 13 14 11 10 10 10 12 12 12 13 12 12 12 12 13 13 15 16 17 18 16 16 19 23 26 23 20 20 18 17 18 20
13 12 12 11 11 12 12 11 10 11 14 13 9 12 11 10 10 11 10 11 12 12 13 12 11 13 15 12 14 16 18 19 19 16 18 20 25 25 20 16 15 15 14 15 17
12 13 12 12 11 12 12 12 11 11 12 16 17 15 13 11 11 12 11 11 11 12 12 11 13 11 11 13 14 16 17 18 18 14 19 20 24 19 15 10 11 12 12 13 14
13 13 13 13 12 12 13 12 13 13 13 13 14 14 15 13 12 10 9 9 11 12 12 12 12 10 12 13 13 14 15 15 16 18 17 15 13 10 7 6 9 10 11 13 14
14 14 13 12 12 12 12 11 11 11 11 11 11 10 11 11 10 10 9 8 8 8 8 10 6 8 10 12 13 13 11 14 16 16 13 13 11 13 7 9 9 9 12 15 15
16 15 14 14 13 12 11 10 10 9 9 7 8 7 7 8 6 6 6 7 9 9 6 8 8 9 12 11 11 11 13 16 15 14 15 10 7 10 8 9 11 11 14 17 18
18 17 16 15 15 13 11 11 10 10 11 7 7 8 8 9 7 6 6 7 8 10 11 13 9 11 10 10 11 14 15 15 12 11 11 7 7 10 12 12 12 14 17 18 18
18 18 17 16 14 14 13 12 11 12 8 9 9 9 10 8 9 8 8 8 8 9 7 9 10 8 10 11 10 13 14 13 10 10 11 8 13 16 17 14 14 16 18 18 20
17 18 18 17 16 14 14 13 13 10 9 9 8 8 9 8 9 9 9 10 12 9 12 10 9 8 8 10 13 13 12 12 13 13 16 14 14 14 12 17 12 15 17 21 23
17 18 17 17 17 16 15 15 12 10 9 10 10 11 10 10 9 10 11 11 7 9 9 10 8 8 11 12 12 11 13 13 16 19 16 15 16 18 15 11 12 17 20 21 21
17 17 18 18 18 17 17 16 13 11 12 11 11 11 10 10 9 10 10 7 8 10 10 10 13 11 12 13 14 14 16 15 14 15 17 17 19 16 13 16 19 19 20 21 23
18 17 17 19 19 19 19 18 16 14 14 13 12 11 12 10 12 12 10 10 10 9 12 13 13 12 13 14 14 13 13 13 13 14 15 16 13 11 20 18 20 21 23 25 24
19 18 18 20 20 19 19 17 16 16 15 15 14 14 14 12 13 13 12 9 9 10 12 13 15 16 18 14 12 13 13 13 12 14 15 17 20 20 9 19 23 26 25 25 26
20 19 19 21 20 22 19 18 18 17 17 15 16 15 12 14 13 14 11 11 12 14 14 12 15 16 14 9 12 10 11 13 15 15 17 16 15 16 25 25 25 25 26 28 29
21 20 21 23 21 20 21 22 20 18 18 18 15 14 14 15 15 13 13 13 13 14 15 15 16 15 16 18 18 19 20 18 17 17 19 20 26 24 26 27 24 25 27 28 31
24 22 20 19 23 23 21 18 21 18 18 17 16 18 16 15 17 18 18 14 15 15 16 14 15 17 18 19 19 19 21 20 20 21 19 26 25 27 28 22 25 27 30 33 33
25 22 22 22 19 22 23 21 22 20 18 18 19 17 19 19 18 15 15 15 17 14 14 13 15 15 17 19 19 20 21 20 19 21 22 24 26 24 22 25 27 30 34 36 34
26 25 23 22 23 23 22 22 21 21 20 19 17 19 19 18 16 17 18 18 17 15 15 13 13 14 14 12 18 16 15 14 14 16 18 20 24 24 26 28 30 32 36 34 35
Wind_Direction
236 236 236 238 241 241 232 230 231 230 230 236 251 252 256 255 229 218 236 238 280 294 301 302 295 292 303 297 306 302 294 291 288 304 306 300 294 290 284 282 276 267 273 270 252
236 236 238 240 241 238 229 228 230 231 230 236 245 251 259 260 234 243 237 254 280 289 291 287 291 276 296 287 300 298 292 292 299 306 302 298 297 292 281 277 273 268 268 262 255
237 240 240 240 239 233 227 228 230 230 231 237 242 252 259 258 250 240 237 260 275 283 288 293 291 286 287 289 292 289 283 294 300 305 303 298 295 290 282 280 274 271 261 255 255
236 238 238 238 234 228 226 228 230 232 234 237 242 252 262 248 262 240 250 263 272 283 285 286 285 280 284 290 291 293 289 292 298 301 302 297 299 293 284 281 278 274 275 254 253
235 238 237 235 230 227 227 228 232 233 235 239 246 255 255 250 256 250 260 266 272 279 280 289 287 285 282 290 298 289 288 292 300 298 296 295 292 292 289 289 282 277 269 258 256
234 237 236 230 227 226 228 231 233 234 236 242 249 256 251 258 253 258 265 268 272 276 277 281 286 290 287 286 288 300 300 295 295 294 299 300 297 298 297 291 286 278 273 264 258
231 232 233 230 227 227 230 233 234 235 240 246 250 254 255 258 261 264 268 271 272 274 276 276 283 283 292 289 300 294 297 297 288 286 297 316 301 292 292 292 286 283 280 273 265
232 230 232 232 230 231 233 234 237 240 245 249 249 254 257 259 262 266 267 270 271 272 274 276 278 279 281 292 292 289 289 300 306 302 304 308 302 306 309 310 294 288 286 278 270
233 230 233 232 231 235 236 239 241 245 245 246 248 251 264 260 262 264 265 267 266 271 274 277 277 276 276 283 291 277 286 301 308 290 301 295 300 302 304 300 294 289 285 280 277
231 231 233 236 234 238 239 240 242 243 241 243 249 260 251 260 260 265 265 267 268 270 275 274 273 273 275 277 284 300 299 298 298 302 292 294 291 302 305 302 302 303 301 295 287
230 231 233 238 239 239 238 235 235 236 235 237 243 247 258 258 263 261 262 269 269 270 275 265 277 278 289 295 295 295 293 292 296 302 302 298 300 301 301 304 318 319 318 317 307
232 232 234 237 240 241 233 232 235 244 257 249 252 254 255 260 263 262 264 268 261 270 274 265 271 286 293 295 295 294 292 294 297 300 305 303 305 299 295 300 320 329 333 333 330
232 233 236 237 242 237 232 243 250 258 259 259 250 254 249 251 258 261 255 268 267 273 274 269 276 284 295 297 294 292 293 304 305 311 306 311 306 316 307 313 325 331 334 332 333
233 234 235 236 235 233 237 244 254 250 258 243 247 246 243 249 257 255 258 266 265 278 293 283 292 295 296 294 297 296 308 307 309 315 308 323 305 306 296 294 311 327 333 332 330
235 235 234 230 240 236 238 240 242 244 253 231 235 239 236 228 233 243 246 251 267 276 282 284 284 292 295 301 303 299 308 301 305 306 308 316 310 298 293 303 311 315 322 325 324
236 235 234 234 235 235 237 237 238 236 243 232 232 231 224 228 235 240 247 260 277 283 274 275 287 295 296 301 296 306 305 295 290 301 304 294 300 304 301 300 302 309 316 321 321
235 232 232 234 232 231 232 229 232 237 239 232 232 230 235 229 235 241 244 255 266 284 278 275 271 296 296 296 299 300 308 308 301 302 298 313 304 294 299 306 300 303 315 318 318
233 230 231 230 230 227 223 225 236 245 231 240 230 229 235 221 247 247 266 269 258 275 289 288 286 277 286 301 306 304 306 303 301 306 299 299 295 305 305 304 296 309 313 316 316
231 229 230 226 225 221 222 226 235 237 236 228 232 241 234 243 255 251 254 268 275 265 280 300 285 296 299 303 301 303 299 303 300 292 293 294 297 305 309 306 311 311 314 316 317
229 228 228 224 221 221 226 232 239 238 240 240 241 233 251 233 246 249 264 272 272 280 283 293 292 298 296 296 295 293 302 302 297 300 299 302 306 300 309 309 314 315 317 314 315
229 230 227 222 221 225 231 234 242 237 238 241 248 249 251 256 251 268 268 275 277 274 283 293 284 292 295 288 289 297 294 292 298 297 299 308 304 308 320 316 316 316 318 318 317
229 230 226 219 223 228 234 236 239 238 239 244 248 252 257 255 259 261 266 273 277 272 282 287 292 293 292 299 300 297 294 294 292 297 298 302 302 295 290 325 320 318 317 317 317
229 230 228 223 228 230 235 240 240 240 240 239 244 248 257 257 259 255 260 269 277 277 285 285 287 297 300 300 303 291 291 289 292 297 289 296 297 314 311 317 320 317 316 315 315
230 230 228 228 233 235 235 236 239 241 245 242 247 248 247 252 254 264 265 273 274 278 282 288 283 276 281 288 297 292 292 288 290 291 296 283 297 305 311 313 319 319 319 318 316
228 230 229 229 235 235 238 239 238 234 238 237 244 243 244 256 256 259 262 268 272 275 279 279 278 280 284 290 291 290 288 289 284 284 285 296 299 308 311 314 316 316 316 316 314
229 229 230 236 236 228 231 237 239 240 234 242 247 247 249 255 259 276 265 268 272 270 268 275 283 288 287 287 285 286 286 284 282 288 289 294 299 307 315 316 316 314 314 314 312
229 231 236 234 234 232 235 236 240 239 242 247 253 252 253 261 265 270 273 273 271 269 265 265 276 289 283 294 303 293 288 291 288 289 295 302 307 314 313 313 315 314 313 314 314